Location: Newark
(50.0306°N, 2.3272°E)
Time: 19:42:49
(UTC+00:00)

A-11 Canister half - Pass Details

Date: 14 December 2019
Orbit: 1525 x 1684 km, 47.3° (Epoch: 24 January)

Event Time Altitude Azimuth Distance (km) Brightness Sun altitude
Rises 07:41:22 0° 265° (W) 4,930 11.2 -0.9°
Reaches altitude 10° 07:44:32 10° 264° (W) 3,947 10.7 -0.5°
Maximum altitude 07:54:41 78° 181° (S) 1,715 9.5 0.8°
Drops below altitude 10° 08:04:44 10° 97° (E) 3,902 12.2 2.1°
Sets 08:07:50 0° 96° (E) 4,872 12.7 2.4°
